GW4389 Weather Reports


time (UTC)temp
C
wind
direction
speed
KPH
gust
KPH
rain 1hr
cm
rain 24hr
cm
rain mn
cm
humidity
%
barometer
mb
20260906230856 22 262 9.7 12.9 0.00 0.00 0.00 31 1022.0
20260906230351 23 271 8.0 9.7 0.00 0.00 0.00 31 1021.8
20260906225849 23 286 11.3 16.1 0.00 0.00 0.00 29 1021.8
20260906225345 23 272 9.7 14.5 0.00 0.00 0.00 29 1021.8
20260906224840 23 235 6.4 11.3 0.00 0.00 0.00 29 1021.8
20260906224337 23 271 11.3 14.5 0.00 0.00 0.00 28 1021.8
20260906223833 23 227 9.7 12.9 0.00 0.00 0.00 29 1021.8
20260906223329 23 272 16.1 22.5 0.00 0.00 0.00 28 1021.7
20260906222827 23 280 11.3 12.9 0.00 0.00 0.00 28 1021.8
20260906222321 23 257 9.7 14.5 0.00 0.00 0.00 29 1021.8
20260906221819 24 296 14.5 17.7 0.00 0.00 0.00 26 1021.5
20260906221318 24 277 12.9 14.5 0.00 0.00 0.00 26 1021.9
20260906220814 24 222 16.1 22.5 0.00 0.00 0.00 25 1021.9
20260906220309 25 281 12.9 14.5 0.00 0.00 0.00 24 1021.9
20260906215807 25 231 6.4 16.1 0.00 0.00 0.00 24 1021.9
20260906215306 25 259 9.7 12.9 0.00 0.00 0.00 24 1021.9
20260906214801 25 293 6.4 11.3 0.00 0.00 0.00 23 1022.0
20260906214256 25 264 16.1 17.7 0.00 0.00 0.00 22 1021.7
20260906213755 25 215 8.0 12.9 0.00 0.00 0.00 23 1021.9
20260906213254 26 280 12.9 16.1 0.00 0.00 0.00 23 1022.2
20260906212752 26 276 9.7 12.9 0.00 0.00 0.00 23 1022.0
20260906212248 25 222 3.2 3.2 0.00 0.00 0.00 23 1021.9
20260906211747 27 12 0.0 0.0 0.00 0.00 0.00 23 1022.3
20260906211242 27 190 3.2 4.8 0.00 0.00 0.00 23 1022.3
20260906210738 27 218 6.4 9.7 0.00 0.00 0.00 24 1022.2
20260906210232 26 170 6.4 6.4 0.00 0.00 0.00 22 1022.2
20260906205727 26 207 4.8 4.8 0.00 0.00 0.00 24 1022.3
20260906205224 26 195 3.2 3.2 0.00 0.00 0.00 23 1022.2
20260906204724 26 211 6.4 6.4 0.00 0.00 0.00 23 1022.5
20260906204223 26 296 3.2 3.2 0.00 0.00 0.00 24 1022.4
20260906203723 27 162 3.2 3.2 0.00 0.00 0.00 24 1022.5
20260906203218 26 131 3.2 4.8 0.00 0.00 0.00 24 1022.5
20260906202715 26 89 3.2 3.2 0.00 0.00 0.00 23 1022.5
20260906202214 26 169 0.0 0.0 0.00 0.00 0.00 25 1022.8
20260906201709 25 245 3.2 3.2 0.00 0.00 0.00 26 1022.6
20260906201209 25 86 3.2 4.8 0.00 0.00 0.00 26 1022.5
20260906200705 25 357 3.2 4.8 0.00 0.00 0.00 25 1022.8
20260906200200 25 357 4.8 4.8 0.00 0.00 0.00 24 1022.6
20260906195655 25 195 1.6 1.6 0.00 0.00 0.00 25 1022.6
20260906195152 24 67 1.6 3.2 0.00 0.00 0.00 26 1022.9
20260906194648 24 346 4.8 4.8 0.00 0.00 0.00 27 1023.0
20260906194143 23 170 0.0 0.0 0.00 0.00 0.00 28 1023.0
20260906193638 24 49 6.4 9.7 0.00 0.00 0.00 26 1022.8
20260906193128 25 323 6.4 6.4 0.00 0.00 0.00 28 1023.0
20260906192624 25 82 0.0 1.6 0.00 0.00 0.00 27 1023.0
20260906192122 26 187 3.2 3.2 0.00 0.00 0.00 25 1023.1
20260906191618 25 171 4.8 4.8 0.00 0.00 0.00 26 1023.4
20260906191116 25 133 4.8 6.4 0.00 0.00 0.00 26 1023.4
20260906190611 25 24 3.2 4.8 0.00 0.00 0.00 27 1023.4
20260906190106 25 65 4.8 4.8 0.00 0.00 0.00 28 1023.4
20260906185604 24 58 3.2 4.8 0.00 0.00 0.00 26 1023.6
20260906185104 24 327 8.0 11.3 0.00 0.00 0.00 27 1023.4
20260906184558 24 1 6.4 9.7 0.00 0.00 0.00 27 1023.5
20260906184054 25 177 1.6 1.6 0.00 0.00 0.00 26 1023.7
20260906183550 25 168 3.2 4.8 0.00 0.00 0.00 27 1023.9
20260906183045 23 84 3.2 3.2 0.00 0.00 0.00 26 1023.9
20260906182540 23 111 1.6 3.2 0.00 0.00 0.00 27 1024.1
20260906182036 23 0 8.0 9.7 0.00 0.00 0.00 29 1024.1
20260906181531 24 168 1.6 1.6 0.00 0.00 0.00 29 1024.3
20260906181027 23 119 0.0 1.6 0.00 0.00 0.00 29 1024.2
20260906180522 23 97 6.4 9.7 0.00 0.00 0.00 28 1024.5
20260906180021 25 113 8.0 9.7 0.00 0.00 0.00 26 1024.6
20260906175520 23 117 1.6 3.2 0.00 0.00 0.00 29 1024.8
20260906175015 23 78 4.8 6.4 0.00 0.00 0.00 27 1025.0
20260906174513 23 151 1.6 1.6 0.00 0.00 0.00 27 1025.0
20260906174008 24 139 1.6 1.6 0.00 0.00 0.00 27 1025.2
20260906173503 25 106 3.2 4.8 0.00 0.00 0.00 27 1025.2
20260906173003 24 144 3.2 4.8 0.00 0.00 0.00 30 1025.2
20260906172459 24 126 1.6 1.6 0.00 0.00 0.00 28 1025.2
20260906171954 24 120 0.0 1.6 0.00 0.00 0.00 27 1025.2
20260906171448 25 140 1.6 1.6 0.00 0.00 0.00 28 1025.3
20260906170944 24 154 4.8 6.4 0.00 0.00 0.00 28 1025.4
20260906170440 23 152 4.8 4.8 0.00 0.00 0.00 27 1025.2
20260906165937 22 102 3.2 3.2 0.00 0.00 0.00 28 1025.3
20260906165436 23 140 6.4 9.7 0.00 0.00 0.00 27 1025.2
20260906164931 23 161 4.8 4.8 0.00 0.00 0.00 28 1025.2
20260906164430 24 176 1.6 3.2 0.00 0.00 0.00 28 1025.4
20260906163926 23 163 3.2 3.2 0.00 0.00 0.00 29 1025.6
20260906163422 23 172 3.2 3.2 0.00 0.00 0.00 30 1025.7
20260906162920 23 99 3.2 3.2 0.00 0.00 0.00 32 1025.8
20260906162419 22 185 1.6 1.6 0.00 0.00 0.00 33 1025.7
20260906161914 22 168 0.0 1.6 0.00 0.00 0.00 33 1025.8
20260906161414 22 164 0.0 0.0 0.00 0.00 0.00 32 1025.6
20260906160913 22 194 3.2 3.2 0.00 0.00 0.00 36 1025.9
20260906160406 22 242 1.6 3.2 0.00 0.00 0.00 35 1025.8
20260906155904 21 191 1.6 1.6 0.00 0.00 0.00 35 1025.9
20260906155358 21 197 4.8 4.8 0.00 0.00 0.00 35 1025.9
20260906154855 22 169 1.6 3.2 0.00 0.00 0.00 34 1025.9
20260906154349 21 148 1.6 3.2 0.00 0.00 0.00 34 1025.7
20260906153848 21 140 3.2 3.2 0.00 0.00 0.00 34 1025.9
20260906153347 21 124 4.8 6.4 0.00 0.00 0.00 35 1026.1
20260906152843 20 143 3.2 4.8 0.00 0.00 0.00 34 1026.1
20260906152342 20 170 1.6 1.6 0.00 0.00 0.00 39 1026.1
20260906151842 18 162 4.8 4.8 0.00 0.00 0.00 39 1026.2
20260906151338 18 149 4.8 4.8 0.00 0.00 0.00 40 1026.1
20260906150833 17 158 6.4 9.7 0.00 0.00 0.00 42 1026.2
20260906150329 17 175 1.6 3.2 0.00 0.00 0.00 47 1026.4
20260906145827 16 140 6.4 6.4 0.00 0.00 0.00 50 1026.3
20260906145326 16 167 3.2 4.8 0.00 0.00 0.00 50 1026.4
20260906144822 15 150 4.8 4.8 0.00 0.00 0.00 49 1026.3
20260906144316 15 162 1.6 1.6 0.00 0.00 0.00 53 1026.3
20260906143816 14 139 4.8 4.8 0.00 0.00 0.00 51 1026.4
20260906143313 15 143 3.2 4.8 0.00 0.00 0.00 46 1026.4
20260906142808 15 122 3.2 3.2 0.00 0.00 0.00 48 1026.3
20260906142306 14 166 3.2 4.8 0.00 0.00 0.00 48 1026.3
20260906141802 13 176 1.6 3.2 0.00 0.00 0.00 48 1026.3
20260906141256 13 177 3.2 3.2 0.00 0.00 0.00 51 1026.3
20260906140755 12 164 3.2 3.2 0.00 0.00 0.00 52 1026.3
20260906140245 12 168 1.6 1.6 0.00 0.00 0.00 51 1026.4
20260906135742 11 151 1.6 1.6 0.00 0.00 0.00 54 1026.4
20260906135238 11 188 1.6 1.6 0.00 0.00 0.00 56 1026.2
20260906134733 11 189 1.6 1.6 0.00 0.00 0.00 58 1026.4
20260906134228 10 187 1.6 1.6 0.00 0.00 0.00 56 1026.1
20260906133724 10 150 3.2 3.2 0.00 0.00 0.00 55 1026.2
20260906133219 10 177 1.6 1.6 0.00 0.00 0.00 56 1026.1
20260906132714 10 149 1.6 1.6 0.00 0.00 0.00 56 1026.1
20260906132210 10 152 0.0 0.0 0.00 0.00 0.00 57 1026.2
20260906131705 9 180 0.0 1.6 0.00 0.00 0.00 57 1026.2
20260906131200 10 187 1.6 3.2 0.00 0.00 0.00 56 1025.9
20260906130655 10 208 3.2 4.8 0.00 0.00 0.00 55 1025.7
20260906130151 10 195 4.8 4.8 0.00 0.00 0.00 55 1025.4
20260906125648 10 208 6.4 6.4 0.00 0.00 0.00 56 1025.8
20260906125147 10 226 6.4 6.4 0.00 0.00 0.00 55 1025.8
20260906124643 9 181 3.2 4.8 0.00 0.00 0.00 56 1025.7
20260906124138 8 198 3.2 4.8 0.00 0.00 0.00 59 1025.6
20260906123637 11 195 3.2 3.2 0.00 0.00 0.00 51 1025.8
20260906123132 12 215 3.2 4.8 0.00 0.00 0.00 48 1025.7
20260906122631 11 216 6.4 6.4 0.00 0.00 0.00 49 1025.6
20260906122127 10 188 3.2 3.2 0.00 0.00 0.00 51 1025.6
20260906121623 9 179 1.6 1.6 0.00 0.00 0.00 55 1025.6
20260906121120 9 172 1.6 3.2 0.00 0.00 0.00 56 1025.8
20260906120615 9 176 0.0 0.0 0.00 0.00 0.00 57 1025.6
20260906120112 10 179 4.8 4.8 0.00 0.00 0.00 53 1025.7
20260906115606 11 236 3.2 4.8 0.00 0.00 0.00 52 1025.7
20260906115102 11 247 4.8 6.4 0.00 0.00 0.00 50 1025.6
20260906114555 10 186 1.6 3.2 0.00 0.00 0.00 51 1025.4
20260906114051 10 187 0.0 1.6 0.00 0.00 0.00 52 1025.7
20260906113550 10 176 3.2 3.2 0.00 0.00 0.00 53 1025.7
20260906113045 11 216 6.4 9.7 0.00 0.00 0.00 52 1025.8
20260906112540 10 197 3.2 3.2 0.00 0.00 0.00 53 1025.6
20260906112037 7 176 1.6 1.6 0.00 0.00 0.00 61 1025.7
20260906111536 8 171 4.8 4.8 0.00 0.00 0.00 60 1025.7
20260906111032 7 178 1.6 3.2 0.00 0.00 0.00 61 1025.7
20260906110531 8 159 4.8 4.8 0.00 0.00 0.00 58 1025.6
20260906110030 10 177 1.6 1.6 0.00 0.00 0.00 54 1025.7
20260906105526 8 177 1.6 1.6 0.00 0.00 0.00 59 1025.6
20260906105022 8 173 0.0 0.0 0.00 0.00 0.00 60 1025.4
20260906104520 10 196 4.8 4.8 0.00 0.00 0.00 52 1025.7
20260906104015 10 227 3.2 3.2 0.00 0.00 0.00 51 1025.7
20260906103513 10 196 0.0 1.6 0.00 0.00 0.00 53 1025.6
20260906103009 11 220 1.6 3.2 0.00 0.00 0.00 51 1025.7
20260906102508 11 201 6.4 11.3 0.00 0.00 0.00 48 1025.6
20260906102008 11 213 4.8 6.4 0.00 0.00 0.00 50 1025.6
20260906101503 11 208 6.4 9.7 0.00 0.00 0.00 52 1025.4
20260906100959 11 203 6.4 9.7 0.00 0.00 0.00 49 1025.2
20260906100454 11 185 4.8 6.4 0.00 0.00 0.00 51 1025.4
20260906095953 10 204 6.4 11.3 0.00 0.00 0.00 54 1025.3
20260906095449 10 218 6.4 9.7 0.00 0.00 0.00 55 1025.3
20260906094944 10 215 6.4 6.4 0.00 0.00 0.00 55 1025.6
20260906094438 10 224 6.4 9.7 0.00 0.00 0.00 55 1025.4
20260906093934 10 197 4.8 6.4 0.00 0.00 0.00 55 1025.6
20260906093430 10 191 1.6 3.2 0.00 0.00 0.00 55 1025.3
20260906092930 10 238 0.0 1.6 0.00 0.00 0.00 55 1025.4
20260906092429 10 205 3.2 4.8 0.00 0.00 0.00 55 1025.4
20260906091925 10 200 4.8 4.8 0.00 0.00 0.00 54 1025.4
20260906091420 10 236 3.2 6.4 0.00 0.00 0.00 54 1025.4
20260906090918 10 210 6.4 6.4 0.00 0.00 0.00 57 1025.6
20260906090418 10 194 3.2 4.8 0.00 0.00 0.00 55 1025.3
20260906085912 10 178 3.2 3.2 0.00 0.00 0.00 56 1025.3
20260906085406 10 213 6.4 6.4 0.00 0.00 0.00 56 1025.2
20260906084906 10 199 4.8 6.4 0.00 0.00 0.00 55 1025.1
20260906084400 9 198 3.2 3.2 0.00 0.00 0.00 57 1025.1
20260906083854 10 181 3.2 3.2 0.00 0.00 0.00 55 1025.2
20260906083350 10 182 0.0 0.0 0.00 0.00 0.00 52 1025.1
20260906082849 11 181 1.6 1.6 0.00 0.00 0.00 49 1025.2
20260906082345 12 185 0.0 1.6 0.00 0.00 0.00 48 1025.1
20260906081841 11 221 4.8 4.8 0.00 0.00 0.00 50 1025.2
20260906081336 11 223 3.2 3.2 0.00 0.00 0.00 51 1025.3
20260906080832 10 200 3.2 4.8 0.00 0.00 0.00 53 1025.4
20260906080328 10 192 1.6 3.2 0.00 0.00 0.00 53 1025.4
20260906075827 10 205 1.6 1.6 0.00 0.00 0.00 54 1025.3
20260906075327 11 183 3.2 3.2 0.00 0.00 0.00 52 1025.7
20260906074823 11 187 3.2 4.8 0.00 0.00 0.00 50 1025.4
20260906074322 11 196 6.4 6.4 0.00 0.00 0.00 49 1025.3
20260906073822 11 218 6.4 6.4 0.00 0.00 0.00 49 1025.2
20260906073321 12 210 4.8 4.8 0.00 0.00 0.00 49 1025.2
20260906072818 12 211 8.0 11.3 0.00 0.00 0.00 49 1025.6
20260906072313 12 193 1.6 1.6 0.00 0.00 0.00 48 1025.4
20260906071809 12 191 6.4 9.7 0.00 0.00 0.00 47 1025.3
20260906071304 12 204 1.6 3.2 0.00 0.00 0.00 47 1025.3
20260906070801 12 211 6.4 9.7 0.00 0.00 0.00 44 1025.3
20260906070256 12 189 0.0 1.6 0.00 0.00 0.00 48 1025.3
20260906065755 12 269 1.6 4.8 0.00 0.00 0.00 49 1025.3
20260906065251 11 199 1.6 1.6 0.00 0.00 0.00 50 1025.4
20260906064746 11 189 1.6 1.6 0.00 0.00 0.00 49 1025.2
20260906064242 11 181 0.0 0.0 0.00 0.00 0.00 49 1025.1
20260906063737 12 175 1.6 3.2 0.00 0.00 0.00 48 1025.1
20260906063233 12 162 0.0 0.0 0.00 0.00 0.00 47 1025.1
20260906062728 12 176 1.6 1.6 0.00 0.00 0.00 47 1025.1
20260906062227 12 105 0.0 0.0 0.00 0.00 0.00 49 1025.0
20260906061723 13 193 0.0 0.0 0.00 0.00 0.00 42 1025.1
20260906061219 13 197 0.0 1.6 0.00 0.00 0.00 43 1025.0
20260906060714 13 219 1.6 1.6 0.00 0.00 0.00 44 1025.1
20260906060212 13 197 1.6 3.2 0.00 0.00 0.00 44 1024.7
20260906055707 13 195 0.0 1.6 0.00 0.00 0.00 43 1024.7
20260906055202 13 194 1.6 3.2 0.00 0.00 0.00 44 1024.8
20260906054658 14 202 1.6 1.6 0.00 0.00 0.00 43 1024.8
20260906054157 14 184 1.6 1.6 0.00 0.00 0.00 43 1024.8
20260906053649 14 166 1.6 1.6 0.00 0.00 0.00 43 1025.0
20260906053144 14 239 1.6 3.2 0.00 0.00 0.00 43 1024.8
20260906052639 14 201 3.2 3.2 0.00 0.00 0.00 43 1024.7
20260906052135 15 306 3.2 3.2 0.00 0.00 0.00 43 1024.8
20260906051631 15 200 1.6 1.6 0.00 0.00 0.00 42 1024.7
20260906051126 16 176 1.6 1.6 0.00 0.00 0.00 40 1024.8
20260906050622 16 213 1.6 3.2 0.00 0.00 0.00 39 1024.7
20260906050117 17 228 1.6 1.6 0.00 0.00 0.00 38 1024.8
20260906045615 17 236 3.2 3.2 0.00 0.00 0.00 38 1024.8
20260906045110 15 186 0.0 0.0 0.00 0.00 0.00 40 1024.8
20260906044606 15 171 0.0 0.0 0.00 0.00 0.00 44 1025.1
20260906044101 14 187 1.6 3.2 0.00 0.00 0.00 44 1024.8
20260906043557 14 178 0.0 0.0 0.00 0.00 0.00 47 1025.0
20260906043053 15 179 0.0 0.0 0.00 0.00 0.00 46 1024.7
20260906042551 17 180 1.6 1.6 0.00 0.00 0.00 42 1025.0
20260906042046 18 216 3.2 3.2 0.00 0.00 0.00 37 1025.0
20260906041543 17 191 1.6 3.2 0.00 0.00 0.00 37 1024.8
20260906041037 17 229 1.6 1.6 0.00 0.00 0.00 38 1024.7
20260906040532 17 291 3.2 4.8 0.00 0.00 0.00 39 1024.8
20260906040027 16 258 3.2 3.2 0.00 0.00 0.00 40 1024.7
20260906035517 16 198 1.6 1.6 0.00 0.00 0.00 41 1025.0
20260906035013 16 188 0.0 0.0 0.00 0.00 0.00 42 1024.8
20260906034512 16 211 1.6 1.6 0.00 0.00 0.00 42 1024.8
20260906034008 17 215 3.2 3.2 0.00 0.00 0.00 40 1024.7
20260906033503 18 239 3.2 3.2 0.00 0.00 0.00 37 1024.7
20260906032958 18 242 3.2 3.2 0.00 0.00 0.00 35 1024.7
20260906032454 18 181 0.0 0.0 0.00 0.00 0.00 36 1024.6
20260906031949 18 199 1.6 1.6 0.00 0.00 0.00 36 1024.5
20260906031444 18 178 1.6 1.6 0.00 0.00 0.00 37 1024.5
20260906030940 17 199 6.4 6.4 0.00 0.00 0.00 39 1024.6
20260906030434 17 213 1.6 3.2 0.00 0.00 0.00 40 1024.2
20260906025934 16 207 3.2 4.8 0.00 0.00 0.00 42 1024.3
20260906025428 15 191 1.6 3.2 0.00 0.00 0.00 46 1024.3
20260906024927 16 192 3.2 3.2 0.00 0.00 0.00 46 1024.3
20260906024427 16 176 3.2 3.2 0.00 0.00 0.00 44 1024.2
20260906023922 17 179 1.6 3.2 0.00 0.00 0.00 43 1024.0
20260906023419 18 163 3.2 4.8 0.00 0.00 0.00 40 1024.1
20260906022918 20 174 4.8 4.8 0.00 0.00 0.00 37 1024.0
20260906022413 21 200 4.8 4.8 0.00 0.00 0.00 32 1023.9
20260906021908 21 197 6.4 9.7 0.00 0.00 0.00 31 1024.0
20260906021408 21 182 1.6 1.6 0.00 0.00 0.00 31 1023.7
20260906020903 21 268 4.8 4.8 0.00 0.00 0.00 34 1023.6
20260906020403 21 201 3.2 4.8 0.00 0.00 0.00 33 1023.6
20260906015857 22 206 6.4 6.4 0.00 0.00 0.00 32 1023.7
20260906015356 22 187 3.2 3.2 0.00 0.00 0.00 31 1023.3
20260906014850 22 187 1.6 1.6 0.00 0.00 0.00 32 1023.3
20260906014350 22 198 1.6 3.2 0.00 0.00 0.00 32 1023.4
20260906013847 22 207 3.2 3.2 0.00 0.00 0.00 33 1023.1
20260906013342 22 217 3.2 4.8 0.00 0.00 0.00 35 1023.4
20260906012837 23 188 1.6 1.6 0.00 0.00 0.00 33 1023.3
20260906012332 24 171 1.6 1.6 0.00 0.00 0.00 30 1023.3
20260906011826 24 180 0.0 1.6 0.00 0.00 0.00 28 1023.1
20260906011321 25 205 1.6 3.2 0.00 0.00 0.00 29 1023.1
20260906010817 25 187 3.2 3.2 0.00 0.00 0.00 27 1023.3
20260906010313 25 214 1.6 3.2 0.00 0.00 0.00 26 1023.5
20260906005808 25 209 1.6 1.6 0.00 0.00 0.00 27 1023.1
20260906005307 25 190 1.6 3.2 0.00 0.00 0.00 28 1023.5
20260906004806 23 192 3.2 3.2 0.00 0.00 0.00 29 1023.6
20260906004301 23 208 1.6 3.2 0.00 0.00 0.00 31 1023.6
20260906003756 23 199 1.6 1.6 0.00 0.00 0.00 31 1023.1
20260906003251 23 185 1.6 1.6 0.00 0.00 0.00 31 1023.4
20260906002746 24 192 3.2 3.2 0.00 0.00 0.00 31 1023.4
20260906002247 25 205 4.8 4.8 0.00 0.00 0.00 29 1023.4
20260906001742 25 193 6.4 9.7 0.00 0.00 0.00 28 1023.3
20260906001237 25 190 3.2 3.2 0.00 0.00 0.00 27 1023.3
20260906000732 27 193 6.4 9.7 0.00 0.00 0.00 24 1023.4
20260906000234 27 201 8.0 11.3 0.00 0.00 0.00 23 1023.1
20260905235727 27 224 6.4 9.7 0.00 0.00 0.00 24 1023.1
20260905235221 27 188 3.2 3.2 0.00 0.00 0.00 23 1023.0
20260905234717 28 175 8.0 12.9 0.00 0.00 0.00 22 1023.0
20260905234212 27 147 4.8 4.8 0.00 0.00 0.00 22 1023.0
20260905233707 27 241 3.2 3.2 0.00 0.00 0.00 21 1023.1
20260905233207 26 299 4.8 4.8 0.00 0.00 0.00 22 1023.0
20260905232702 26 268 3.2 4.8 0.00 0.00 0.00 24 1023.1
20260905232157 26 160 0.0 1.6 0.00 0.00 0.00 23 1023.0
20260905231653 26 163 3.2 3.2 0.00 0.00 0.00 24 1023.0
20260905231148 27 195 4.8 6.4 0.00 0.00 0.00 21 1023.0